When you browse on this site, cookies collect data to enhance your experience and personalize the content and advertising you see.
Visit our Privacy Policy to learn more. By continuing to use the site, you agree to this use of cookies and data.
  • în România
  • Lista ţărilor
  • Pe 7 zile
  • Temperatura apei
  • Hartă satelitară
  • Meteo pe hartă
  • Widget-uri
  • user-avatar
    Intrare

    Meteo pe oră la Chiclayo

    Astăzi, 16 Iulie, Marţi

    Timp Temperatura Precipitaţii Vânt Presiune Umiditate
    00:00 +17°C° 0 mm 3 m/s 758 mmHg 89%
    01:00 +17°C° 0 mm 3 m/s 758 mmHg 89%
    02:00 +17°C° 0 mm 3 m/s 758 mmHg 90%
    03:00 +17°C° 0 mm 3 m/s 758 mmHg 91%
    04:00 +16°C° 0 mm 3 m/s 758 mmHg 92%
    05:00 +17°C° 0 mm 3 m/s 758 mmHg 91%
    06:00 +17°C° 0 mm 3 m/s 758 mmHg 90%
    07:00 +17°C° 0 mm 3 m/s 758 mmHg 89%
    08:00 +19°C° 0 mm 3 m/s 758 mmHg 79%
    09:00 +21°C° 0 mm 4 m/s 759 mmHg 69%
    10:00 +23°C° 0 mm 4 m/s 759 mmHg 59%
    11:00 +26°C° 0 mm 5 m/s 758 mmHg 55%
    12:00 +27°C° 0 mm 5 m/s 758 mmHg 52%
    13:00 +28°C° 0 mm 6 m/s 757 mmHg 48%
    14:00 +27°C° 0 mm 6 m/s 756 mmHg 50%
    15:00 +27°C° 0 mm 6 m/s 756 mmHg 53%
    16:00 +26°C° 0 mm 6 m/s 755 mmHg 55%
    17:00 +23°C° 0 mm 6 m/s 756 mmHg 63%
    18:00 +21°C° 0 mm 5 m/s 756 mmHg 70%
    19:00 +19°C° 0 mm 5 m/s 757 mmHg 78%
    20:00 +19°C° 0 mm 5 m/s 757 mmHg 81%
    21:00 +18°C° 0 mm 4 m/s 758 mmHg 84%
    22:00 +18°C° 0 mm 4 m/s 758 mmHg 87%
    23:00 +18°C° 0 mm 4 m/s 758 mmHg 88%

    Mâine, 17 Iulie, Miercuri

    Timp Temperatura Precipitaţii Vânt Presiune Umiditate
    00:00 +17°C° 0 mm 4 m/s 758 mmHg 89%
    01:00 +17°C° 0 mm 4 m/s 758 mmHg 91%
    02:00 +17°C° 0 mm 3 m/s 758 mmHg 92%
    03:00 +17°C° 0 mm 3 m/s 758 mmHg 93%
    04:00 +16°C° 0 mm 3 m/s 758 mmHg 94%
    05:00 +17°C° 0 mm 3 m/s 758 mmHg 92%
    06:00 +17°C° 0 mm 3 m/s 758 mmHg 91%
    07:00 +17°C° 0 mm 3 m/s 758 mmHg 90%
    08:00 +19°C° 0 mm 3 m/s 758 mmHg 81%
    09:00 +21°C° 0 mm 4 m/s 758 mmHg 72%
    10:00 +23°C° 0 mm 4 m/s 758 mmHg 64%
    11:00 +25°C° 0 mm 4 m/s 758 mmHg 60%
    12:00 +26°C° 0 mm 5 m/s 758 mmHg 55%
    13:00 +27°C° 0 mm 5 m/s 758 mmHg 51%
    14:00 +27°C° 0 mm 6 m/s 757 mmHg 53%
    15:00 +26°C° 0 mm 6 m/s 756 mmHg 54%
    16:00 +26°C° 0 mm 6 m/s 756 mmHg 56%
    17:00 +23°C° 0 mm 6 m/s 756 mmHg 65%
    18:00 +21°C° 0 mm 6 m/s 757 mmHg 74%
    19:00 +19°C° 0 mm 5 m/s 757 mmHg 82%
    20:00 +17°C° 0 mm 5 m/s 757 mmHg 84%
    21:00 +17°C° 0 mm 5 m/s 758 mmHg 85%
    22:00 +18°C° 0 mm 4 m/s 758 mmHg 87%
    23:00 +17°C° 0 mm 4 m/s 758 mmHg 88%

    Poimâine, 18 Iulie, Joi

    Timp Temperatura Precipitaţii Vânt Presiune Umiditate
    00:00 +17°C° 0 mm 4 m/s 758 mmHg 90%
    01:00 +17°C° 0 mm 3 m/s 758 mmHg 91%
    02:00 +17°C° 0 mm 3 m/s 758 mmHg 91%
    03:00 +17°C° 0 mm 3 m/s 757 mmHg 91%
    04:00 +17°C° 0 mm 3 m/s 757 mmHg 91%
    05:00 +17°C° 0 mm 3 m/s 757 mmHg 89%
    06:00 +17°C° 0 mm 3 m/s 758 mmHg 88%
    07:00 +18°C° 0 mm 3 m/s 758 mmHg 86%
    08:00 +19°C° 0 mm 3 m/s 758 mmHg 79%
    09:00 +21°C° 0 mm 3 m/s 758 mmHg 72%
    10:00 +22°C° 0 mm 3 m/s 758 mmHg 64%
    11:00 +23°C° 0 mm 4 m/s 757 mmHg 61%
    12:00 +26°C° 0 mm 5 m/s 757 mmHg 57%
    13:00 +27°C° 0 mm 6 m/s 756 mmHg 53%
    14:00 +26°C° 0 mm 6 m/s 756 mmHg 54%
    15:00 +26°C° 0 mm 6 m/s 755 mmHg 56%
    16:00 +24°C° 0 mm 6 m/s 754 mmHg 58%
    17:00 +22°C° 0 mm 6 m/s 755 mmHg 66%
    18:00 +20°C° 0 mm 5 m/s 755 mmHg 73%
    19:00 +17°C° 0 mm 5 m/s 756 mmHg 81%
    20:00 +17°C° 0 mm 5 m/s 756 mmHg 83%
    21:00 +18°C° 0 mm 4 m/s 757 mmHg 85%
    22:00 +18°C° 0 mm 4 m/s 757 mmHg 86%
    23:00 +17°C° 0 mm 4 m/s 757 mmHg 88%

    19 Iulie, Vineri

    Timp Temperatura Precipitaţii Vânt Presiune Umiditate
    00:00 +17°C° 0 mm 3 m/s 757 mmHg 89%
    01:00 +17°C° 0 mm 3 m/s 757 mmHg 91%
    02:00 +16°C° 0 mm 3 m/s 757 mmHg 91%
    03:00 +16°C° 0 mm 3 m/s 756 mmHg 92%
    04:00 +16°C° 0 mm 2 m/s 756 mmHg 93%
    05:00 +16°C° 0 mm 2 m/s 756 mmHg 91%
    06:00 +17°C° 0 mm 2 m/s 757 mmHg 90%
    07:00 +17°C° 0 mm 2 m/s 757 mmHg 88%
    08:00 +19°C° 0 mm 2 m/s 757 mmHg 81%
    09:00 +20°C° 0 mm 3 m/s 757 mmHg 73%
    10:00 +22°C° 0 mm 3 m/s 757 mmHg 66%
    11:00 +24°C° 0 mm 3 m/s 757 mmHg 61%
    12:00 +25°C° 0 mm 4 m/s 756 mmHg 56%
    13:00 +27°C° 0 mm 5 m/s 756 mmHg 51%
    14:00 +26°C° 0 mm 5 m/s 755 mmHg 53%
    15:00 +24°C° 0 mm 6 m/s 755 mmHg 55%
    16:00 +24°C° 0 mm 6 m/s 754 mmHg 58%
    17:00 +22°C° 0 mm 5 m/s 755 mmHg 65%
    18:00 +20°C° 0 mm 4 m/s 755 mmHg 72%
    19:00 +18°C° 0 mm 4 m/s 756 mmHg 80%
    20:00 +18°C° 0 mm 3 m/s 756 mmHg 82%
    21:00 +18°C° 0 mm 3 m/s 757 mmHg 84%
    22:00 +17°C° 0 mm 2 m/s 757 mmHg 86%
    23:00 +17°C° 0 mm 2 m/s 757 mmHg 87%

    20 Iulie, Sâmbătă

    Timp Temperatura Precipitaţii Vânt Presiune Umiditate
    00:00 +17°C° 0 mm 2 m/s 757 mmHg 88%
    01:00 +17°C° 0 mm 2 m/s 757 mmHg 89%
    02:00 +16°C° 0 mm 2 m/s 757 mmHg 90%
    03:00 +16°C° 0 mm 2 m/s 756 mmHg 92%
    04:00 +16°C° 0 mm 2 m/s 756 mmHg 93%
    05:00 +16°C° 0 mm 2 m/s 756 mmHg 92%
    06:00 +17°C° 0 mm 2 m/s 757 mmHg 91%
    07:00 +17°C° 0 mm 2 m/s 757 mmHg 90%
    08:00 +19°C° 0 mm 3 m/s 757 mmHg 80%
    09:00 +21°C° 0 mm 3 m/s 757 mmHg 70%
    10:00 +24°C° 0 mm 3 m/s 757 mmHg 60%
    11:00 +25°C° 0 mm 4 m/s 757 mmHg 56%
    12:00 +26°C° 0 mm 5 m/s 756 mmHg 52%
    13:00 +28°C° 0 mm 5 m/s 756 mmHg 49%
    14:00 +27°C° 0 mm 6 m/s 755 mmHg 51%
    15:00 +26°C° 0 mm 6 m/s 754 mmHg 54%
    16:00 +24°C° 0 mm 6 m/s 754 mmHg 56%
    17:00 +22°C° 0 mm 5 m/s 755 mmHg 64%
    18:00 +21°C° 0 mm 5 m/s 755 mmHg 72%
    19:00 +19°C° 0 mm 4 m/s 756 mmHg 80%
    20:00 +18°C° 0 mm 3 m/s 756 mmHg 83%
    21:00 +18°C° 0 mm 3 m/s 757 mmHg 85%
    22:00 +18°C° 0 mm 2 m/s 757 mmHg 87%
    23:00 +17°C° 0 mm 2 m/s 757 mmHg 88%

    21 Iulie, Duminică

    Timp Temperatura Precipitaţii Vânt Presiune Umiditate
    00:00 +17°C° 0 mm 2 m/s 757 mmHg 90%
    01:00 +17°C° 0 mm 2 m/s 757 mmHg 91%
    02:00 +17°C° 0 mm 2 m/s 757 mmHg 92%
    03:00 +16°C° 0 mm 2 m/s 757 mmHg 92%
    04:00 +16°C° 0 mm 2 m/s 756 mmHg 93%
    05:00 +17°C° 0 mm 2 m/s 757 mmHg 92%
    06:00 +17°C° 0 mm 2 m/s 757 mmHg 91%
    07:00 +17°C° 0 mm 2 m/s 757 mmHg 89%
    08:00 +19°C° 0 mm 3 m/s 757 mmHg 81%
    09:00 +21°C° 0 mm 3 m/s 758 mmHg 72%
    10:00 +22°C° 0 mm 3 m/s 758 mmHg 64%
    11:00 +25°C° 0 mm 4 m/s 757 mmHg 59%
    12:00 +26°C° 0 mm 5 m/s 757 mmHg 54%
    13:00 +27°C° 0 mm 5 m/s 756 mmHg 49%
    14:00 +27°C° 0 mm 6 m/s 756 mmHg 52%
    15:00 +26°C° 0 mm 6 m/s 755 mmHg 54%
    16:00 +24°C° 0 mm 6 m/s 755 mmHg 57%
    17:00 +22°C° 0 mm 6 m/s 755 mmHg 65%
    18:00 +21°C° 0 mm 5 m/s 756 mmHg 73%
    19:00 +19°C° 0 mm 4 m/s 757 mmHg 81%
    20:00 +18°C° 0 mm 4 m/s 757 mmHg 83%
    21:00 +18°C° 0 mm 3 m/s 757 mmHg 85%
    22:00 +18°C° 0 mm 3 m/s 758 mmHg 86%
    23:00 +17°C° 0 mm 3 m/s 758 mmHg 87%
    Arată mai mult